TimeHST,TemperatureF,Dew PointF,Humidity,Sea Level PressureIn,VisibilityMPH,Wind Direction,Wind SpeedMPH,Gust SpeedMPH,PrecipitationIn,Events,Conditions,WindDirDegrees,DateUTC
12:58 AM,73.4,66.2,78,29.98,10.0,South,4.6,-,N/A,,Partly Cloudy,170,2013-10-02 10:58:00
1:58 AM,73.4,66.2,78,29.96,10.0,ESE,5.8,-,N/A,,Clear,120,2013-10-02 11:58:00
2:58 AM,73.4,66.2,78,29.95,10.0,SSW,2.3,-,N/A,,Clear,200,2013-10-02 12:58:00
3:58 AM,71.6,66.2,83,29.93,10.0,WSW,1.2,-,N/A,,Partly Cloudy,240,2013-10-02 13:58:00
4:58 AM,71.6,66.2,83,29.94,10.0,SSE,2.3,-,N/A,,Scattered Clouds,150,2013-10-02 14:58:00
5:58 AM,71.6,64.4,78,29.95,10.0,SSW,2.3,-,N/A,,Partly Cloudy,210,2013-10-02 15:58:00
6:58 AM,71.6,66.2,83,29.96,10.0,South,2.3,-,N/A,,Clear,190,2013-10-02 16:58:00
7:58 AM,77.0,68.0,74,29.96,10.0,SE,5.8,-,N/A,,Clear,140,2013-10-02 17:58:00
8:58 AM,78.8,66.2,65,29.98,10.0,SSE,5.8,-,N/A,,Clear,150,2013-10-02 18:58:00
11:55 AM,82.4,66.2,58,29.93,10.0,East,11.5,19.6,N/A,,Scattered Clouds,80,2013-10-02 21:55:00
12:58 PM,82.4,64.4,54,29.91,10.0,East,15.0,-,N/A,,Clear,80,2013-10-02 22:58:00
1:58 PM,82.4,66.2,58,29.91,10.0,East,13.8,-,N/A,,Partly Cloudy,80,2013-10-02 23:58:00
2:58 PM,82.4,66.2,58,29.90,10.0,ENE,13.8,-,N/A,,Clear,70,2013-10-03 00:58:00
3:58 PM,80.6,66.2,61,29.90,10.0,ENE,13.8,-,N/A,,Clear,70,2013-10-03 01:58:00
4:58 PM,78.8,66.2,65,29.90,10.0,ENE,15.0,-,N/A,,Clear,70,2013-10-03 02:58:00
5:58 PM,77.0,66.2,69,29.92,10.0,East,10.4,-,N/A,,Clear,90,2013-10-03 03:58:00
6:58 PM,75.2,66.2,73,29.94,10.0,South,3.5,-,N/A,,Partly Cloudy,190,2013-10-03 04:58:00
7:58 PM,75.2,66.2,73,29.95,10.0,East,2.3,-,N/A,,Clear,90,2013-10-03 05:58:00
8:58 PM,73.4,66.2,78,29.97,10.0,SSE,4.6,-,N/A,,Clear,160,2013-10-03 06:58:00
9:58 PM,73.4,66.2,78,29.98,10.0,South,4.6,-,N/A,,Clear,170,2013-10-03 07:58:00
10:48 PM,73.4,66.2,78,30.00,10.0,Variable,4.6,-,N/A,,Mostly Cloudy,0,2013-10-03 08:48:00
10:58 PM,73.4,66.2,78,29.96,10.0,SE,3.5,-,N/A,,Mostly Cloudy,140,2013-10-03 08:58:00
11:58 PM,73.4,66.2,78,29.99,10.0,South,5.8,-,N/A,,Partly Cloudy,170,2013-10-03 09:58:00